Location: *
(40.7873°S, 98.7174°E)
Time: 23:46:29
(UTC+00:00)

ARIANE 6 FM1 Upper Stage - Pass Details

Date: 24 December 2025
Orbit: 522 x 610 km, 62.0° (Epoch: 20 January)

Event Time Altitude Azimuth Distance (km) Brightness Sun altitude
Rises 17:12:39 0° 218° (SW) 2,906 7.1 -25.7°
Reaches altitude 10° 17:14:58 10° 219° (SW) 1,989 6.1 -25.8°
Enters shadow 17:18:41 59° 233° (SW) 711 3.2 -25.8°
